Tapachula Airport, Mexico

9:11 PM CDT on May 20, 2018 (GMT -0500)
Tapachula International

Weather History for MMTP - March, 2013

Change the Weather History Date:

Wednesday, March 27, 2013

  Actual Average Record
Temperature  
Mean Temperature 82 °F -  
Max Temperature 89 °F 88 °F 96 °F (2018)
Min Temperature 75 °F 73 °F 35 °F (2004)
Cooling Degree Days 17    
Growing Degree Days 32 (Base 50)    
Moisture  
Dew Point 73 °F    
Average Humidity 71    
Maximum Humidity 79    
Minimum Humidity 55    
Precipitation  
Precipitation 0.00 in - - ()
Sea Level Pressure  
Sea Level Pressure 29.90 in    
Wind  
Wind Speed 3 mph ()    
Max Wind Speed 12 mph    
Max Gust Speed -    
Visibility 7.0 miles    
Events      
Averages and records for this station are not official NWS values.
T = Trace of Precipitation, MM = Missing Value Source: Averaged Metar Reports

Daily Weather History Graph

Daily Weather History Graph

Search for Another Location

Airport or City:

Astronomy

Mar. 27, 2013 Rise Set
Actual Time 6:08 AM CST 6:20 PM CST
Civil Twilight 5:46 AM CST 6:42 PM CST
Nautical Twilight 5:21 AM CST 7:07 PM CST
Astronomical Twilight 4:56 AM CST 7:32 PM CST
Moon 6:51 PM CST (3/27) 6:07 AM CST (3/27)
Length of Visible Light 12h 55m
Length of Day
12h 12m
Full, 100% of the Moon is Illuminated
Mar 27
Full
Apr 2
Last Quarter
Apr 10
New
Apr 18
First Quarter
Apr 25
Full

Hourly Weather History & Observations

Time (CST) Temp. Heat Index Dew Point Humidity Pressure Visibility Wind Dir Wind Speed Gust Speed Precip Events Conditions
1:40 AM 80.6 °F 84.6 °F 71.6 °F 74% 29.90 in 6.0 mi Calm Calm - N/A   Scattered Clouds
2:40 AM 78.8 °F - 69.8 °F 74% 29.88 in 6.0 mi Calm Calm - N/A   Scattered Clouds
3:40 AM 78.8 °F - 69.8 °F 74% 29.88 in 6.0 mi Calm Calm - N/A   Scattered Clouds
4:40 AM 77.0 °F - 68.0 °F 74% 29.89 in 6.0 mi Calm Calm - N/A   Scattered Clouds
5:40 AM 75.2 °F - 68.0 °F 78% 29.85 in 6.0 mi Calm Calm - N/A   Clear
6:40 AM 75.2 °F - 68.0 °F 78% 29.93 in 6.0 mi Calm Calm - N/A   Scattered Clouds
7:40 AM 77.0 °F - 69.8 °F 78% 29.94 in 5.0 mi Calm Calm - N/A   Scattered Clouds
8:45 AM 86.0 °F 90.4 °F 69.8 °F 58% 29.92 in 6.0 mi Calm Calm - N/A   Clear
9:45 AM 89.6 °F 96.2 °F 71.6 °F 55% 29.96 in 7.0 mi Calm Calm - N/A   Clear
10:40 AM 89.6 °F 96.2 °F 71.6 °F 55% 29.98 in 7.0 mi WSW 11.5 mph - N/A   Clear
11:45 AM 89.6 °F 98.2 °F 73.4 °F 59% 29.91 in 7.0 mi SW 11.5 mph - N/A   Partly Cloudy
12:40 PM 87.8 °F 93.8 °F 71.6 °F 58% 29.96 in 7.0 mi WSW 11.5 mph - N/A   Scattered Clouds
2:10 PM 87.8 °F 95.6 °F 73.4 °F 62% 29.90 in 10.0 mi WSW 11.5 mph - N/A   Scattered Clouds
2:40 PM 87.8 °F 97.6 °F 75.2 °F 66% 29.83 in 7.0 mi WSW 11.5 mph - N/A   Scattered Clouds
3:40 PM 86.0 °F 95.1 °F 75.2 °F 70% 29.88 in 10.0 mi SW 11.5 mph - N/A   Scattered Clouds
4:40 PM 86.0 °F 96.9 °F 77.0 °F 74% 29.88 in 7.0 mi SSW 9.2 mph - N/A   Scattered Clouds
5:45 PM 84.2 °F 94.1 °F 77.0 °F 79% 29.84 in 10.0 mi SW 8.1 mph - N/A   Mostly Cloudy
6:40 PM 82.4 °F 89.5 °F 75.2 °F 79% 29.90 in 7.0 mi Calm Calm - N/A   Mostly Cloudy
7:40 PM 84.2 °F 92.3 °F 75.2 °F 74% 29.90 in 7.0 mi Calm Calm - N/A   Mostly Cloudy
8:40 PM 82.4 °F 89.5 °F 75.2 °F 79% 29.86 in 7.0 mi Calm Calm - N/A   Mostly Cloudy
9:40 PM 82.4 °F 89.5 °F 75.2 °F 79% 29.92 in 7.0 mi Calm Calm - N/A   Mostly Cloudy
10:40 PM 82.4 °F 89.5 °F 75.2 °F 79% 29.95 in 7.0 mi Calm Calm - N/A   Mostly Cloudy
11:40 PM 82.4 °F 89.5 °F 75.2 °F 79% 29.91 in 7.0 mi Calm Calm - N/A   Mostly Cloudy